GW6367 Weather Reports


time (UTC)temp
C
wind
direction
speed
KPH
gust
KPH
rain 1hr
cm
rain 24hr
cm
rain mn
cm
humidity
%
barometer
mb
20260504150353 20 241 3.2 4.8 0.00 0.00 0.00 91 1010.0
20260504140853 20 240 6.4 6.4 0.00 0.00 0.00 91 1010.0
20260504140354 20 249 3.2 4.8 0.00 0.00 0.00 90 1010.0
20260504130354 20 260 3.2 6.4 0.00 0.00 0.00 91 1009.0
20260504110353 22 239 1.6 8.0 0.00 0.00 0.00 80 1009.0
20260504100353 23 236 8.0 9.7 0.00 0.00 0.00 77 1009.0
20260504081854 25 265 4.8 11.3 0.00 0.00 0.00 67 1008.0
20260504081354 26 292 11.3 19.3 0.00 0.00 0.00 67 1008.0
20260504080854 25 281 4.8 11.3 0.00 0.00 0.00 68 1008.0
20260504080354 25 257 4.8 12.9 0.00 0.00 0.00 68 1009.0
20260504070354 26 283 11.3 17.7 0.00 0.00 0.00 64 1009.0
20260504050353 27 247 8.0 16.1 0.00 0.00 0.00 64 1011.0
20260504045853 27 227 9.7 16.1 0.00 0.00 0.00 64 1011.0
20260504045354 27 278 12.9 16.1 0.00 0.00 0.00 65 1011.0
20260504044853 26 251 9.7 14.5 0.00 0.00 0.00 67 1011.0
20260504044354 26 283 11.3 14.5 0.00 0.00 0.00 66 1011.0
20260504043854 26 235 12.9 12.9 0.00 0.00 0.00 66 1011.0
20260504043353 27 285 12.9 14.5 0.00 0.00 0.00 64 1012.0
20260504042855 26 233 11.3 16.1 0.00 0.00 0.00 66 1012.0
20260504042354 26 258 8.0 12.9 0.00 0.00 0.00 66 1012.0
20260504041854 26 249 11.3 19.3 0.00 0.00 0.00 68 1012.0
20260504041353 26 279 14.5 19.3 0.00 0.00 0.00 69 1012.0
20260504040853 27 272 8.0 16.1 0.00 0.00 0.00 67 1012.0
20260504040353 26 268 8.0 14.5 0.00 0.00 0.00 69 1012.0
20260504035854 26 272 8.0 16.1 0.00 0.00 0.00 69 1012.0
20260504035354 26 255 9.7 16.1 0.00 0.00 0.00 69 1012.0
20260504034854 26 294 9.7 12.9 0.00 0.00 0.00 69 1012.0
20260504034354 26 250 8.0 14.5 0.00 0.00 0.00 71 1012.0
20260504033853 25 225 9.7 17.7 0.00 0.00 0.00 72 1012.0
20260504033354 25 244 11.3 11.3 0.00 0.00 0.00 71 1013.0
20260504032854 26 233 6.4 16.1 0.00 0.00 0.00 71 1013.0
20260504032353 24 266 8.0 14.5 0.00 0.00 0.00 76 1013.0
20260504031855 24 245 8.0 11.3 0.00 0.00 0.00 75 1013.0
20260504031353 25 273 6.4 12.9 0.00 0.00 0.00 73 1013.0
20260504030854 25 237 11.3 17.7 0.00 0.00 0.00 71 1013.0
20260504030354 25 238 8.0 17.7 0.00 0.00 0.00 72 1013.0
20260504025853 25 315 6.4 11.3 0.00 0.00 0.00 71 1013.0
20260504025353 26 258 11.3 16.1 0.00 0.00 0.00 67 1013.0
20260504024854 26 284 6.4 16.1 0.00 0.00 0.00 66 1013.0
20260504024354 25 285 8.0 9.7 0.00 0.00 0.00 60 1013.0
20260504023854 26 300 14.5 17.7 0.00 0.00 0.00 63 1013.0
20260504023353 27 273 6.4 11.3 0.00 0.00 0.00 46 1013.0
20260504022853 27 327 0.0 9.7 0.00 0.00 0.00 46 1013.0
20260504022354 26 254 4.8 8.0 0.00 0.00 0.00 44 1013.0
20260504021853 26 344 1.6 8.0 0.00 0.00 0.00 43 1013.0
20260504021353 26 227 3.2 11.3 0.00 0.00 0.00 43 1013.0
20260504020853 26 182 11.3 12.9 0.00 0.00 0.00 48 1013.0
20260504020353 26 277 4.8 6.4 0.00 0.00 0.00 52 1014.0
20260504015855 25 208 6.4 8.0 0.00 0.00 0.00 57 1013.0
20260504015353 26 254 4.8 8.0 0.00 0.00 0.00 54 1014.0
20260504014854 26 202 6.4 8.0 0.00 0.00 0.00 59 1014.0
20260504014353 25 313 0.0 9.7 0.00 0.00 0.00 62 1014.0
20260504013853 25 297 4.8 8.0 0.00 0.00 0.00 61 1014.0
20260504013354 25 217 4.8 6.4 0.00 0.00 0.00 62 1013.0
20260504012855 25 65 1.6 6.4 0.00 0.00 0.00 63 1014.0
20260504012353 24 164 0.0 3.2 0.00 0.00 0.00 64 1014.0
20260504011854 25 248 4.8 4.8 0.00 0.00 0.00 64 1014.0
20260504011354 25 204 4.8 6.4 0.00 0.00 0.00 64 1014.0
20260504010853 24 170 4.8 6.4 0.00 0.00 0.00 67 1014.0
20260504010354 23 213 0.0 4.8 0.00 0.00 0.00 68 1014.0
20260504005853 23 304 4.8 8.0 0.00 0.00 0.00 68 1014.0
20260504005354 23 223 1.6 8.0 0.00 0.00 0.00 67 1014.0
20260504004854 23 52 4.8 4.8 0.00 0.00 0.00 71 1014.0
20260504004354 23 217 3.2 4.8 0.00 0.00 0.00 71 1014.0
20260504003853 23 235 3.2 4.8 0.00 0.00 0.00 68 1013.0
20260504003354 22 144 4.8 6.4 0.00 0.00 0.00 71 1014.0
20260504002853 23 274 1.6 6.4 0.00 0.00 0.00 70 1014.0
20260504002354 23 32 4.8 11.3 0.00 0.00 0.00 67 1014.0
20260504001854 23 204 0.0 9.7 0.00 0.00 0.00 68 1014.0
20260504001353 22 183 4.8 6.4 0.00 0.00 0.00 70 1013.0
20260504000853 22 41 0.0 8.0 0.00 0.00 0.00 69 1013.0
20260504000354 22 221 1.6 6.4 0.00 0.00 0.00 71 1013.0
20260503235854 22 353 4.8 6.4 0.00 0.00 0.00 70 1014.0
20260503235353 22 224 0.0 3.2 0.00 0.00 0.00 71 1014.0
20260503234853 22 211 1.6 3.2 0.00 0.00 0.00 72 1014.0
20260503234354 22 196 1.6 4.8 0.00 0.00 0.00 74 1014.0
20260503233853 22 189 1.6 6.4 0.00 0.00 0.00 75 1013.0
20260503233353 22 239 1.6 6.4 0.00 0.00 0.00 74 1013.0
20260503232853 22 1 1.6 3.2 0.00 0.00 0.00 75 1013.0
20260503232354 21 182 1.6 6.4 0.00 0.00 0.00 75 1013.0
20260503231854 21 257 3.2 6.4 0.00 0.00 0.00 76 1013.0
20260503231353 21 174 3.2 4.8 0.00 0.00 0.00 76 1013.0
20260503230853 21 229 1.6 4.8 0.00 0.00 0.00 76 1013.0
20260503230353 21 301 0.0 4.8 0.00 0.00 0.00 79 1013.0
20260503225853 20 100 1.6 4.8 0.00 0.00 0.00 81 1013.0
20260503225353 20 178 3.2 4.8 0.00 0.00 0.00 82 1013.0
20260503224853 19 229 3.2 3.2 0.00 0.00 0.00 87 1013.0
20260503224355 19 33 0.0 3.2 0.00 0.00 0.00 90 1013.0
20260503223853 18 196 3.2 3.2 0.00 0.00 0.00 92 1013.0
20260503223356 18 224 3.2 4.8 0.00 0.00 0.00 94 1012.0
20260503222853 18 244 1.6 3.2 0.00 0.00 0.00 96 1013.0
20260503222354 18 238 3.2 3.2 0.00 0.00 0.00 97 1013.0
20260503221853 18 214 1.6 3.2 0.00 0.00 0.00 98 1013.0
20260503221353 18 215 0.0 3.2 0.00 0.00 0.00 98 1012.0
20260503220853 18 215 0.0 3.2 0.00 0.00 0.00 98 1012.0
20260503220353 18 225 1.6 4.8 0.00 0.00 0.00 98 1012.0
20260503215853 18 259 1.6 3.2 0.00 0.00 0.00 98 1012.0
20260503215354 18 75 0.0 3.2 0.00 0.00 0.00 98 1012.0
20260503214853 18 55 0.0 3.2 0.00 0.00 0.00 99 1012.0
20260503213939 18 280 3.2 4.8 0.00 0.00 0.00 98 1012.0
20260503212916 18 157 1.6 3.2 0.00 0.00 0.00 99 1012.0
20260503212353 18 217 1.6 4.8 0.00 0.00 0.00 99 1012.0
20260503211853 18 214 1.6 3.2 0.00 0.00 0.00 98 1012.0
20260503211355 18 284 0.0 3.2 0.00 0.00 0.00 98 1012.0
20260503210853 18 266 1.6 3.2 0.00 0.00 0.00 98 1012.0
20260503210353 18 273 1.6 4.8 0.00 0.00 0.00 98 1012.0
20260503205853 18 304 1.6 3.2 0.00 0.00 0.00 98 1012.0
20260503205354 18 319 1.6 3.2 0.00 0.00 0.00 99 1012.0
20260503204853 18 267 0.0 4.8 0.00 0.00 0.00 99 1012.0
20260503204353 18 232 3.2 4.8 0.00 0.00 0.00 98 1012.0
20260503203854 18 248 3.2 4.8 0.00 0.00 0.00 98 1012.0
20260503203353 18 238 4.8 8.0 0.00 0.00 0.00 98 1012.0
20260503202853 18 252 1.6 4.8 0.00 0.00 0.00 98 1012.0
20260503202353 18 254 3.2 4.8 0.00 0.00 0.00 98 1012.0
20260503201854 18 196 3.2 3.2 0.00 0.00 0.00 98 1012.0
20260503201354 18 243 3.2 3.2 0.00 0.00 0.00 98 1012.0
20260503200855 18 217 1.6 4.8 0.00 0.00 0.00 98 1012.0
20260503200354 18 242 3.2 4.8 0.00 0.00 0.00 98 1011.0
20260503195855 18 231 1.6 3.2 0.00 0.00 0.00 98 1011.0
20260503195353 18 261 3.2 4.8 0.00 0.00 0.00 98 1011.0
20260503194853 18 244 3.2 4.8 0.00 0.00 0.00 98 1011.0
20260503194354 18 249 1.6 4.8 0.00 0.00 0.00 97 1011.0
20260503193854 18 194 0.0 3.2 0.00 0.00 0.00 97 1010.0
20260503193353 18 208 3.2 4.8 0.00 0.00 0.00 97 1011.0
20260503192854 18 262 1.6 3.2 0.00 0.00 0.00 97 1011.0
20260503192354 18 204 1.6 4.8 0.00 0.00 0.00 97 1011.0
20260503191854 18 56 0.0 4.8 0.00 0.00 0.00 96 1011.0
20260503191353 18 356 3.2 3.2 0.00 0.00 0.00 96 1011.0
20260503190853 17 241 3.2 4.8 0.00 0.00 0.00 94 1011.0
20260503190353 18 218 1.6 4.8 0.00 0.00 0.00 94 1010.0
20260503185854 18 227 1.6 4.8 0.00 0.00 0.00 94 1010.0
20260503185354 18 262 1.6 3.2 0.00 0.00 0.00 94 1011.0
20260503184854 18 233 3.2 4.8 0.00 0.00 0.00 94 1010.0
20260503184353 18 234 1.6 6.4 0.00 0.00 0.00 94 1010.0
20260503183853 18 224 3.2 4.8 0.00 0.00 0.00 94 1010.0
20260503183353 18 208 3.2 6.4 0.00 0.00 0.00 94 1010.0
20260503182854 18 221 1.6 4.8 0.00 0.00 0.00 95 1010.0
20260503182354 18 254 3.2 6.4 0.00 0.00 0.00 95 1010.0
20260503181855 18 281 3.2 4.8 0.00 0.00 0.00 96 1010.0
20260503181353 18 241 1.6 6.4 0.00 0.00 0.00 96 1010.0
20260503180853 18 260 3.2 3.2 0.00 0.00 0.00 95 1010.0
20260503180353 18 203 0.0 4.8 0.00 0.00 0.00 95 1010.0
20260503175853 18 232 4.8 6.4 0.00 0.00 0.00 95 1010.0
20260503175353 18 246 0.0 6.4 0.00 0.00 0.00 95 1010.0
20260503174855 18 224 3.2 6.4 0.00 0.00 0.00 95 1010.0
20260503174354 18 244 3.2 8.0 0.00 0.00 0.00 95 1010.0
20260503173854 18 183 4.8 8.0 0.00 0.00 0.00 94 1010.0
20260503173353 18 209 3.2 6.4 0.00 0.00 0.00 95 1010.0
20260503172853 18 189 4.8 6.4 0.00 0.00 0.00 94 1010.0
20260503172353 18 28 3.2 6.4 0.00 0.00 0.00 94 1010.0
20260503171853 18 247 4.8 6.4 0.00 0.00 0.00 91 1010.0
20260503171353 18 266 3.2 4.8 0.00 0.00 0.00 91 1010.0
20260503170853 18 237 3.2 6.4 0.00 0.00 0.00 92 1010.0
20260503170353 18 277 0.0 6.4 0.00 0.00 0.00 92 1010.0
20260503150855 19 221 4.8 6.4 0.00 0.00 0.00 93 1011.0